Regional Weather Roundup
Issued by NWS

Home | Current Version | Previous Version | Graphics & Text | Print | Product List | Glossary On
Versions: 1 2 3 4 5 6 7 8 9 10 11 12 13 14 15 16 17 18 19 20 21 22 23 24 25 26 27 28 29 30 31 32 33 34 35 36 37 38 39 40 41 42 43 44 45 46 47 48 49
000
ASUS45 KBOU 031110
RWRCO

WEATHER ROUNDUP FOR COLORADO
NATIONAL WEATHER SERVICE DENVER/BOULDER CO
500 AM MDT FRI JUL 03 2015

NOTE: "FAIR" INDICATES FEW OR NO CLOUDS BELOW 12000 FEET WITH NO
SIGNIFICANT WEATHER AND/OR OBSTRUCTIONS TO VISIBILITY.

COZ001>005-013-030-031-031200-
...NORTHWEST COLORADO...

CITY           SKY/WX    TMP DP  RH WIND       PRES   REMARKS
CRAIG          PTCLDY    57  46  66 CALM      30.20R
HAYDEN         PTCLDY    63  43  48 SE9       30.22R
MEEKER         PTCLDY    59  45  59 CALM      30.18F
MOUNT WERNER   NOT AVBL
STEAMBOAT SPGS PTCLDY    54  44  70 CALM      30.24S
WALDEN         CLEAR     41  39  93 CALM      30.35R
$$

COZ006>008-011-031200-
...WEST CENTRAL VALLEYS...

CITY           SKY/WX    TMP DP  RH WIND       PRES   REMARKS
GRAND JUNCTION PTCLDY    70  47  43 E10       30.03R
MONTROSE       PTCLDY    67  49  52 SE5       30.16R
EAGLE          MOCLDY    63  48  59 NE5       30.25S
RIFLE          PTCLDY    65  45  48 CALM      30.11R
DELTA          PTCLDY    69  50  49 CALM      30.09S
NUCLA          PTCLDY    63  48  59 SE7       30.20R
$$

COZ017>023-064>068-031200-
...SOUTHWEST COLORADO...

CITY           SKY/WX    TMP DP  RH WIND       PRES   REMARKS
DURANGO        MOCLDY    55  50  83 N3        30.25S
CORTEZ         CLEAR     59  53  80 CALM      30.17R
PAGOSA SPRINGS MOCLDY    53  52  96 CALM      30.34R
TELLURIDE      MOCLDY    57  46  67 CALM      30.42R
WOLF CREEK PAS NOT AVBL
$$

COZ009-010-012-014-032>034-037-058>063-031200-
...CENTRAL COLORADO...

CITY           SKY/WX    TMP DP  RH WIND       PRES   REMARKS
ASPEN          MOCLDY    56  43  61 CALM      30.29R
BUENA VISTA    PTCLDY    48  46  91 N3        30.36R
COPPER MTN     MOCLDY    50  37  62 SW3       30.62S
BERTHOUD PASS  CLOUDY    41  32  70 NW15G22   30.65R
COTTONWOOD PAS NOT AVBL
GUNNISON       CLEAR     52  43  71 N7        30.35S
KREMMLING      MOCLDY    55  45  67 NE6       30.31R
LEADVILLE      CLOUDY    45  45 100 SW7       30.46S
MONARCH PASS   CLEAR     46  36  66 W8        30.70R
SALIDA         NOT AVBL
SUNLIGHT       MOCLDY    55  41  58 CALM      30.53S
WILKERSON PASS PTCLDY    45  41  87 W8        30.57R
$$

COZ069>075-031200-
...SAN LUIS VALLEY/SANGRE DE CRISTO MOUNTAINS...

CITY           SKY/WX    TMP DP  RH WIND       PRES   REMARKS
ALAMOSA        PTCLDY    50  48  93 CALM      30.32S
LA VETA PASS   FOG       46  45  93 MISG      30.47F VSB 1/4
SAGUACHE       CLEAR     50  46  87 NW8       30.35S
$$

COZ035-036-038>040-031200-
...NORTHERN COLORADO FRONT RANGE...

CITY           SKY/WX    TMP DP  RH WIND       PRES   REMARKS
DENVER INTL AP PTCLDY    57  53  86 S5        30.17R
DMNS CITY PARK   N/A     59  58  96 CALM      30.17R
AURORA         MOCLDY    56  56  99 SE3       30.20R
FRONT RANGE AP CLEAR     59  55  88 SE6       30.19R
ERIE MUNI ARPT PTCLDY    58  57  96 CALM      30.17R
BOULDER MUN AP PTCLDY    61  59  94 CALM      30.17S
CENTENNIAL     MOCLDY    56  55  97 SE7       30.19R
BROOMFIELD     PTCLDY    59  55  88 CALM      30.19R
FORT COLLINS   CLEAR     61  57  88 N6        30.18R
LONGMONT       CLEAR     59  56  91 CALM      30.18R
$$

COZ041-046-047-076>085-087-088-031200-
...PIKES PEAK/PALMER DIVIDE AND SOUTHERN FOOTHILLS...

CITY           SKY/WX    TMP DP  RH WIND       PRES   REMARKS
COLO. SPRINGS  PTCLDY    57  51  80 NE5       30.22F
A. F. ACADEMY  PTCLDY    52  52  99 NW6       30.23S
ELLICOTT       PTCLDY   N/A N/A N/A S3        30.21S
FALCON         PTCLDY    55  49  79 SW5       30.27R
FORT CARSON    PTCLDY    56  53  91 NE3       30.19F
LIMON          CLEAR     57  55  93 NE10      30.20R
MONUMENT HILL  NOT AVBL
TRINIDAD       PTCLDY    60  55  83 W7        30.21S
$$

COZ042>045-048>051-090-091-031200-
...NORTHEAST COLORADO...

CITY           SKY/WX    TMP DP  RH WIND       PRES   REMARKS
GREELEY ARPT   CLEAR     57  55  94 NE5       30.17R
AKRON          MOCLDY    60  56  86 NW6       30.16R
BURLINGTON     HVY RAIN  63  60  90 NW18      30.16R FOG
WRAY           PTCLDY    63  59  88 W3        30.11F
STERLING       NOT AVBL
HOLYOKE        CLOUDY    63  59  88 CALM      30.11F
FORT MORGAN    MOCLDY    58  55  89 N9        30.17R
$$

COZ086-089-092>099-031200-
...SOUTHEAST COLORADO...

CITY           SKY/WX    TMP DP  RH WIND       PRES   REMARKS
PUEBLO         PTCLDY    61  54  77 CALM      30.14F
LA JUNTA       PTCLDY    62  55  77 W6        30.13R
LAMAR          PTCLDY    64  63  96 SW6       30.06S
SPRINGFIELD      N/A     64  62  93 NE6       30.11F
$$


USA.gov is the U.S. government's official web portal to all federal, state and local government web resources and services.